SCP
0 0 0 0 0 0 0 0 0 0 0 0 0 0 0 0 0 0 0 0 0 0
0 0 0 0 0 0 0 0 0 0 0 0 0 0 0 0 0 0 0 0 0 0
0 0 0 0 0 0 0 0 0 0 0 0 0 0 0 0 0 0 0 0 0 0
0 0 0 0 0 0 0 0 0 0 0 0 0 0 0 0 0 0 0 0 0 0
0 0 0 0 0 0 0 0 0 0 0 0 0 0 0 0 0 0 0 0 0 0
0 0 0 0 0 0 0 0 0 0 0 0 0 0 0 0 0 0 0 0 0 0
0 0 0 0 0 0 0 0 0 0 0 0 0 0 0 0 0 0 0 0 0 0
0 0 0 0 0 0 0 0 0 0 0 0 0 0 0 0 0 0 0 0 0 0
0 0 0 0 0 0 0 0 0 0 0 0 0 0 0 0 0 0 0 0 0 0
0 0 0 0 0 0 0 0 0 0 0 0 0 0 0 0 0 0 0 0 0 0
0 0 0 0 0 0 0 0 0 0 0 0 0 0 0 0 0 0 0 0 0 0
0 0 0 0 0 0 0 0 0 0 0 0 0 0 0 0 0 0 0 0 0 0
0 0 0 0 0 0 0 0 0 0 0 0 0 0 0 0 0 0 0 0 0 0
0 0 0 0 0 0 0 0 0 0 0 0 0 0 0 0 0 0 0 0 0 0
Wind_Speed_500mb
79 77 74 73 68 66 66 64 62 63 63 61 59 58 57 56 53 49 45 43 43 42
78 76 76 73 70 65 64 63 62 63 62 61 60 58 57 55 53 49 47 44 42 40
76 73 76 73 71 67 62 62 63 62 61 60 59 57 56 55 54 51 50 47 43 39
73 72 74 73 71 66 60 61 62 61 59 59 59 58 57 56 55 53 50 45 40 38
66 69 73 72 69 66 60 60 61 60 59 58 58 58 57 57 54 51 47 43 40 37
62 64 65 68 67 65 61 60 61 60 59 59 57 56 54 51 47 45 41 38 36 33
54 56 59 62 65 64 61 60 60 60 59 57 55 53 51 48 45 44 41 38 35 33
45 49 53 57 61 63 61 58 56 57 57 54 53 51 49 47 46 44 42 39 36 34
39 44 47 50 55 61 60 57 55 56 55 54 52 48 46 45 44 43 39 37 36 33
33 37 42 46 50 59 60 56 55 54 52 50 47 47 46 45 43 40 38 36 32 31
28 32 36 41 48 56 58 55 53 52 49 46 47 49 48 45 42 40 37 34 32 29
23 27 33 39 44 53 56 55 53 50 49 49 50 52 49 46 44 40 37 33 30 27
20 22 27 35 43 51 54 55 54 54 52 53 54 51 50 46 42 39 36 32 27 24
20 22 26 33 42 50 58 59 59 59 57 56 53 46 40 38 38 37 34 28 24 20
Wind_Direction_500mb
238 239 237 236 234 233 232 230 226 222 218 216 215 215 216 216 219 221 225 228 227 229
238 239 239 236 234 233 233 231 227 224 221 218 217 217 218 219 222 224 226 224 224 228
240 240 240 237 234 232 231 230 226 224 221 220 218 218 218 220 222 224 225 224 225 226
241 240 241 239 234 232 232 229 226 225 222 219 218 217 218 220 222 222 221 221 220 223
242 242 240 239 234 231 229 227 226 223 221 219 217 217 217 217 217 218 218 219 221 223
243 242 242 238 233 231 230 226 224 222 221 219 217 216 215 216 217 216 217 221 223 227
244 244 242 238 232 231 229 225 223 222 221 219 218 216 215 213 211 214 214 217 220 226
246 244 240 235 230 227 225 223 224 223 219 218 217 217 214 212 212 214 216 217 222 228
245 242 240 233 227 223 221 220 221 218 218 215 215 213 212 213 214 215 219 224 226 232
245 242 238 232 225 220 219 218 216 213 213 214 211 209 209 209 213 216 219 223 230 237
241 240 236 229 221 215 215 215 212 207 207 206 203 206 208 209 210 212 216 222 230 239
234 234 231 224 218 213 212 208 206 203 200 197 197 208 210 209 209 210 214 222 230 238
232 226 223 220 214 209 206 202 195 192 194 194 194 210 208 206 210 213 218 220 226 235
219 219 214 210 207 203 195 194 189 188 186 192 202 201 206 209 206 212 210 212 218 225
Wind_Speed_850mb
79 77 74 73 68 66 66 64 62 63 63 61 59 58 57 56 53 49 45 43 43 42
78 76 76 73 70 65 64 63 62 63 62 61 60 58 57 55 53 49 47 44 42 40
76 73 76 73 71 67 62 62 63 62 61 60 59 57 56 55 54 51 50 47 43 39
73 72 74 73 71 66 60 61 62 61 59 59 59 58 57 56 55 53 50 45 40 38
66 69 73 72 69 66 60 60 61 60 59 58 58 58 57 57 54 51 47 43 40 37
62 64 65 68 67 65 61 60 61 60 59 59 57 56 54 51 47 45 41 38 36 33
54 56 59 62 65 64 61 60 60 60 59 57 55 53 51 48 45 44 41 38 35 33
45 49 53 57 61 63 61 58 56 57 57 54 53 51 49 47 46 44 42 39 36 34
39 44 47 50 55 61 60 57 55 56 55 54 52 48 46 45 44 43 39 37 36 33
33 37 42 46 50 59 60 56 55 54 52 50 47 47 46 45 43 40 38 36 32 31
28 32 36 41 48 56 58 55 53 52 49 46 47 49 48 45 42 40 37 34 32 29
23 27 33 39 44 53 56 55 53 50 49 49 50 52 49 46 44 40 37 33 30 27
20 22 27 35 43 51 54 55 54 54 52 53 54 51 50 46 42 39 36 32 27 24
20 22 26 33 42 50 58 59 59 59 57 56 53 46 40 38 38 37 34 28 24 20
Wind_Direction_850mb
238 239 237 236 234 233 232 230 226 222 218 216 215 215 216 216 219 221 225 228 227 229
238 239 239 236 234 233 233 231 227 224 221 218 217 217 218 219 222 224 226 224 224 228
240 240 240 237 234 232 231 230 226 224 221 220 218 218 218 220 222 224 225 224 225 226
241 240 241 239 234 232 232 229 226 225 222 219 218 217 218 220 222 222 221 221 220 223
242 242 240 239 234 231 229 227 226 223 221 219 217 217 217 217 217 218 218 219 221 223
243 242 242 238 233 231 230 226 224 222 221 219 217 216 215 216 217 216 217 221 223 227
244 244 242 238 232 231 229 225 223 222 221 219 218 216 215 213 211 214 214 217 220 226
246 244 240 235 230 227 225 223 224 223 219 218 217 217 214 212 212 214 216 217 222 228
245 242 240 233 227 223 221 220 221 218 218 215 215 213 212 213 214 215 219 224 226 232
245 242 238 232 225 220 219 218 216 213 213 214 211 209 209 209 213 216 219 223 230 237
241 240 236 229 221 215 215 215 212 207 207 206 203 206 208 209 210 212 216 222 230 239
234 234 231 224 218 213 212 208 206 203 200 197 197 208 210 209 209 210 214 222 230 238
232 226 223 220 214 209 206 202 195 192 194 194 194 210 208 206 210 213 218 220 226 235
219 219 214 210 207 203 195 194 189 188 186 192 202 201 206 209 206 212 210 212 218 225